Grants-Milan, NM

5:31 AM MDT on April 25, 2017 (GMT -0600)
Grants-Milan Municipal

Weather History for KGNT - November, 2011

Change the Weather History Date:

Sunday, November 6, 2011

  Actual Average Record
Temperature  
Mean Temperature 34 °F -  
Max Temperature 48 °F 61 °F 75 °F (1980)
Min Temperature 19 °F 26 °F 12 °F (1993)
Degree Days  
Heating Degree Days 32    
Moisture  
Dew Point 21 °F    
Average Humidity 62    
Maximum Humidity 89    
Minimum Humidity 32    
Precipitation  
Precipitation 0.00 in - - ()
Sea Level Pressure  
Sea Level Pressure 30.00 in    
Wind  
Wind Speed 3 mph (WNW)    
Max Wind Speed 12 mph    
Max Gust Speed 22 mph    
Averages and records for this station are not official NWS values.
T = Trace of Precipitation, MM = Missing Value Source: NWS Daily Summary

Daily Weather History Graph

Daily Weather History Graph

Search for Another Location

Airport or City:

Trip Planner

Search our weather history database for the weather conditions in past years. The results will help you decide how hot, cold, wet, or windy it might be!

Date:

Astronomy

Nov. 06, 2011 Rise Set
Actual Time 6:37 AM MST 5:12 PM MST
Civil Twilight 6:10 AM MST 5:39 PM MST
Nautical Twilight 5:40 AM MST 6:09 PM MST
Astronomical Twilight 5:10 AM MST 6:38 PM MST
Moon 2:51 PM MST (11/6) 2:53 AM MST (11/6)
Length of Visible Light 11h 28m
Length of Day
10h 35m
Waxing Gibbous, 86% of the Moon is Illuminated
Nov 6
Waxing Gibbous
Nov 10
Full
Nov 18
Last Quarter
Nov 24
New
Dec 2
First Quarter

Hourly Weather History & Observations

Time (MST) Temp. Windchill Dew Point Humidity Pressure Visibility Wind Dir Wind Speed Gust Speed Precip Events Conditions
12:53 AM 30.0 °F - 23.0 °F 75% 29.97 in - Calm Calm - N/A   Unknown
1:53 AM 27.0 °F 23.0 °F 21.9 °F 81% 29.98 in - NNW 3.5 mph - N/A   Unknown
1:53 AM 25.0 °F 16.3 °F 19.9 °F 81% 30.01 in - NW 8.1 mph - N/A   Unknown
2:53 AM 25.0 °F 18.1 °F 19.9 °F 81% 30.00 in - WNW 5.8 mph - N/A   Unknown
3:53 AM 23.0 °F - 19.0 °F 85% 30.01 in - Calm Calm - N/A   Unknown
4:53 AM 21.0 °F - 18.0 °F 88% 30.03 in - Calm Calm - N/A   Unknown
5:53 AM 19.9 °F - 17.1 °F 89% 30.06 in - Calm Calm - N/A   Unknown
6:53 AM 21.0 °F - 17.1 °F 85% 30.08 in - Calm Calm - N/A   Unknown
7:53 AM 28.0 °F - 23.0 °F 81% 30.07 in - Calm Calm - N/A   Unknown
8:53 AM 30.9 °F - 23.0 °F 72% 30.07 in - Calm Calm - N/A   Unknown
9:53 AM 37.0 °F - 21.9 °F 54% 30.06 in - Calm Calm - N/A   Unknown
10:53 AM 41.0 °F 34.3 °F 21.0 °F 45% 30.02 in - SW 11.5 mph 21.9 mph N/A   Unknown
11:53 AM 42.1 °F - 19.9 °F 41% 29.98 in - Calm Calm - N/A   Unknown
12:53 PM 44.1 °F 41.5 °F 19.9 °F 38% 29.94 in - South 4.6 mph - N/A   Unknown
1:53 PM 46.0 °F 44.8 °F 19.9 °F 35% 29.94 in - Variable 3.5 mph - N/A   Unknown
2:53 PM 48.9 °F - 19.9 °F 32% 29.92 in - West 9.2 mph - N/A   Unknown
3:53 PM 46.9 °F - 19.9 °F 34% 29.94 in - WSW 11.5 mph - N/A   Unknown
4:53 PM 46.0 °F 44.8 °F 21.0 °F 37% 29.97 in - Variable 3.5 mph - N/A   Unknown
5:53 PM 39.9 °F 34.5 °F 21.9 °F 49% 30.02 in - North 8.1 mph - N/A   Unknown
6:53 PM 37.9 °F 35.5 °F 23.0 °F 55% 30.03 in - NW 3.5 mph - N/A   Unknown
7:53 PM 37.9 °F 33.5 °F 23.0 °F 55% 30.01 in - NW 5.8 mph - N/A   Unknown
8:53 PM 34.0 °F 29.8 °F 23.0 °F 64% 30.02 in - NW 4.6 mph - N/A   Unknown
9:53 PM 34.0 °F - 24.1 °F 67% 30.00 in - Calm Calm - N/A   Unknown
10:53 PM 34.0 °F - 26.1 °F 73% 29.98 in - Calm Calm - N/A   Unknown